Regional Weather Roundup
Issued by NWS

Home | Current Version | Previous Version | Graphics & Text | Print | Product List | Glossary On
Versions: 1 2 3 4 5 6 7 8 9 10 11 12 13 14 15 16 17 18 19 20 21 22 23 24 25 26 27 28 29 30 31 32 33 34 35 36 37 38 39 40 41 42 43 44 45 46 47 48 49 50
000
ASUS45 KABQ 022001
RWRNM
WEATHER ROUNDUP FOR NEW MEXICO
NATIONAL WEATHER SERVICE ALBUQUERQUE NM
200 PM MDT TUE SEP 02 2014

NOTE: "FAIR" MEANS FEW OR NO CLOUDS BELOW 12,000 FEET AGL WITH NO
       SIGNIFICANT WEATHER OR OBSTRUCTIONS TO VISION.

      THIS PRODUCT IS RELEASED AS TWO VERSIONS.  ONE VERSION NEAR
      THE TOP OF THE HOUR CONTAINING PRELIMINARY DATA FROM ALBUQUERQUE
      AND OTHER STATIONS.  A FINAL VERSION WITH ADDITIONAL DATA IS
      ISSUED ABOUT 10 MINUTES AFTER THE HOUR.

NMZ501-503-504-510>518-022100-
NORTHWEST PLATEAU/NORTHCENTRAL MOUNTAINS

CITY           SKY/WX    TMP DP  RH WIND       PRES   REMARKS
FARMINGTON     SUNNY     90  31  12 W10G18    30.09F
LOS ALAMOS     SUNNY     82  30  15 SW8       30.24F
SANTA FE       SUNNY     89  30  12 SW15G24   30.16F

$$
NMZ402-403-502-505>509-022100-
WESTCENTRAL MOUNTAINS/SOUTHWEST MOUNTAINS

CITY           SKY/WX    TMP DP  RH WIND       PRES   REMARKS
GALLUP         SUNNY     89  28  11 W16G23    30.19F
SILVER CITY    SUNNY     90  30  12 S5        30.13F

$$
NMZ407-409-411-412-022100-
SOUTHERN DESERTS

CITY           SKY/WX    TMP DP  RH WIND       PRES   REMARKS
LORDSBURG      FAIR      93  36  13 NW13      30.04F
DEMING         SUNNY     96  33  11 VRB5      30.01F
LAS CRUCES     SUNNY     95  31  10 SW5       30.03F
HOLLOMAN AFB   SUNNY     97  31   9 VRB6      29.98F
ALAMOGORDO     SUNNY     95  36  12 CALM      30.01F
T OR C         SUNNY     93  36  13 MISG      30.05F

$$
NMZ519>523-022100-
CENTRAL VALLEYS/CENTRAL HIGHLANDS

CITY           SKY/WX    TMP DP  RH WIND       PRES   REMARKS
ALBUQUERQUE    MOSUNNY   90  33  13 W7        30.11F
DOUBLE EAGLE   MOSUNNY   88  34  14 SW10      30.14F
CLINES CORNERS SUNNY     87  32  14 W12G20    30.22F
BELEN          FAIR      91  37  15 E6        30.09F
SOCORRO        FAIR      93  36  13 E5        30.06F

$$
NMZ524>526-539-540-022100-
SOUTHCENTRAL MOUNTAINS

CITY           SKY/WX    TMP DP  RH WIND       PRES   REMARKS
RUIDOSO        NOT AVBL

$$
NMZ527>531-022100-
NORTHEAST HIGHLANDS/NORTHEAST PLAINS

CITY           SKY/WX    TMP DP  RH WIND       PRES   REMARKS
LAS VEGAS      SUNNY     85  40  20 S17       30.20F
RATON          SUNNY     86  34  15 S12G17    30.14F
CLAYTON        SUNNY     80  61  52 SE10      30.11F

$$
NMZ532>537-022100-
EASTCENTRAL PLAINS

CITY           SKY/WX    TMP DP  RH WIND       PRES   REMARKS
TUCUMCARI      SUNNY     86  62  44 E13       30.03F
CANNON AFB     SUNNY     90  60  36 E8        30.04F
CLOVIS AIRPORT   N/A     90  57  33 E9        30.07F

$$
NMZ028-029-538-022100-
SOUTHEAST PLAINS

CITY           SKY/WX    TMP DP  RH WIND       PRES   REMARKS
ROSWELL        SUNNY     96  47  18 NE9       29.97F
CARLSBAD       SUNNY    102  35  10 N9        29.92F HX  96
HOBBS          MOSUNNY   99  45  15 SE12      29.97F


$$



USA.gov is the U.S. government's official web portal to all federal, state and local government web resources and services.